| time (UTC) | temp C | wind direction | speed KPH | gust KPH | rain 1hr cm | rain 24hr cm | rain mn cm | humidity % | barometer mb |
| 20260507232705 | 7 | 234 | 3.2 | 6.4 | 0.00 | 0.00 | 0.00 | 82 | 1010.9 |
| 20260507232206 | 7 | 238 | 1.6 | 4.8 | 0.00 | 0.00 | 0.00 | 82 | 1011.0 |
| 20260507231705 | 7 | 233 | 1.6 | 3.2 | 0.00 | 0.00 | 0.00 | 82 | 1010.9 |
| 20260507231205 | 7 | 248 | 0.0 | 3.2 | 0.00 | 0.00 | 0.00 | 81 | 1010.9 |
| 20260507230704 | 7 | 248 | 0.0 | 3.2 | 0.00 | 0.00 | 0.00 | 81 | 1010.9 |
| 20260507230229 | 7 | 248 | 0.0 | 3.2 | 0.00 | 0.00 | 0.00 | 81 | 1010.9 |
| 20260507225706 | 8 | 212 | 0.0 | 3.2 | 0.00 | 0.00 | 0.00 | 81 | 1010.9 |
| 20260507225207 | 8 | 212 | 0.0 | 4.8 | 0.00 | 0.00 | 0.00 | 81 | 1010.9 |
| 20260507224705 | 8 | 212 | 1.6 | 6.4 | 0.00 | 0.00 | 0.00 | 80 | 1010.9 |
| 20260507224205 | 8 | 212 | 1.6 | 11.3 | 0.00 | 0.00 | 0.00 | 80 | 1010.8 |
| 20260507223705 | 8 | 244 | 3.2 | 14.5 | 0.00 | 0.00 | 0.00 | 80 | 1010.8 |
| 20260507222705 | 8 | 230 | 4.8 | 14.5 | 0.00 | 0.00 | 0.00 | 80 | 1010.9 |
| 20260507222205 | 8 | 232 | 4.8 | 12.9 | 0.00 | 0.00 | 0.00 | 80 | 1010.8 |
| 20260507221727 | 8 | 250 | 4.8 | 16.1 | 0.00 | 0.00 | 0.00 | 80 | 1010.8 |
| 20260507221205 | 8 | 226 | 4.8 | 16.1 | 0.00 | 0.00 | 0.00 | 79 | 1010.8 |
| 20260507220227 | 9 | 228 | 6.4 | 16.1 | 0.00 | 0.00 | 0.00 | 79 | 1010.8 |
| 20260507215705 | 9 | 225 | 6.4 | 16.1 | 0.00 | 0.00 | 0.00 | 79 | 1010.8 |
| 20260507215206 | 9 | 199 | 8.0 | 16.1 | 0.00 | 0.00 | 0.00 | 79 | 1010.8 |
| 20260507214205 | 9 | 225 | 6.4 | 17.7 | 0.00 | 0.00 | 0.00 | 78 | 1010.8 |
| 20260507213704 | 9 | 234 | 8.0 | 17.7 | 0.00 | 0.00 | 0.00 | 78 | 1010.8 |
| 20260507212705 | 9 | 167 | 8.0 | 22.5 | 0.00 | 0.00 | 0.00 | 77 | 1010.8 |
| 20260507212205 | 9 | 204 | 6.4 | 16.1 | 0.00 | 0.00 | 0.00 | 77 | 1010.8 |
| 20260507211705 | 10 | 204 | 6.4 | 14.5 | 0.00 | 0.00 | 0.00 | 77 | 1010.9 |
| 20260507211205 | 10 | 215 | 6.4 | 14.5 | 0.00 | 0.00 | 0.00 | 77 | 1010.9 |
| 20260507210705 | 10 | 223 | 6.4 | 17.7 | 0.00 | 0.00 | 0.00 | 76 | 1010.9 |
| 20260507210207 | 10 | 197 | 8.0 | 17.7 | 0.00 | 0.00 | 0.00 | 76 | 1010.8 |
| 20260507205705 | 10 | 215 | 8.0 | 20.9 | 0.00 | 0.00 | 0.00 | 76 | 1010.8 |
| 20260507205205 | 10 | 221 | 8.0 | 24.1 | 0.00 | 0.00 | 0.00 | 75 | 1010.8 |
| 20260507204705 | 10 | 198 | 8.0 | 24.1 | 0.00 | 0.00 | 0.00 | 75 | 1010.8 |
| 20260507204205 | 10 | 212 | 8.0 | 20.9 | 0.00 | 0.00 | 0.00 | 75 | 1010.8 |
| 20260507203706 | 10 | 212 | 9.7 | 20.9 | 0.00 | 0.00 | 0.00 | 75 | 1010.7 |
| 20260507203212 | 10 | 204 | 11.3 | 20.9 | 0.00 | 0.00 | 0.00 | 74 | 1010.7 |
| 20260507202705 | 10 | 196 | 9.7 | 24.1 | 0.00 | 0.00 | 0.00 | 74 | 1010.7 |
| 20260507202206 | 11 | 221 | 9.7 | 29.0 | 0.00 | 0.00 | 0.00 | 74 | 1010.6 |
| 20260507201705 | 11 | 148 | 12.9 | 29.0 | 0.00 | 0.00 | 0.00 | 74 | 1010.5 |
| 20260507201205 | 11 | 212 | 14.5 | 29.0 | 0.00 | 0.00 | 0.00 | 73 | 1010.4 |
| 20260507200705 | 11 | 184 | 14.5 | 27.4 | 0.00 | 0.00 | 0.00 | 73 | 1010.3 |
| 20260507200205 | 11 | 240 | 14.5 | 27.4 | 0.00 | 0.00 | 0.00 | 73 | 1010.2 |
| 20260507195705 | 11 | 215 | 14.5 | 27.4 | 0.00 | 0.00 | 0.00 | 72 | 1010.2 |
| 20260507195206 | 11 | 199 | 14.5 | 27.4 | 0.00 | 0.00 | 0.00 | 72 | 1010.2 |
| 20260507194205 | 11 | 194 | 11.3 | 24.1 | 0.00 | 0.00 | 0.00 | 71 | 1010.1 |
| 20260507193705 | 11 | 223 | 9.7 | 24.1 | 0.00 | 0.00 | 0.00 | 71 | 1010.1 |
| 20260507192206 | 11 | 195 | 12.9 | 25.7 | 0.00 | 0.00 | 0.00 | 71 | 1010.0 |
| 20260507191706 | 11 | 211 | 11.3 | 22.5 | 0.00 | 0.00 | 0.00 | 71 | 1010.0 |
| 20260507191205 | 11 | 173 | 11.3 | 22.5 | 0.00 | 0.00 | 0.00 | 71 | 1010.0 |
| 20260507190705 | 11 | 221 | 11.3 | 22.5 | 0.00 | 0.00 | 0.00 | 71 | 1010.1 |
| 20260507190205 | 11 | 188 | 12.9 | 22.5 | 0.00 | 0.00 | 0.00 | 71 | 1010.1 |
| 20260507185705 | 11 | 175 | 14.5 | 22.5 | 0.00 | 0.00 | 0.00 | 70 | 1010.1 |
| 20260507184705 | 11 | 183 | 12.9 | 27.4 | 0.00 | 0.00 | 0.00 | 69 | 1010.0 |
| 20260507184205 | 11 | 221 | 14.5 | 29.0 | 0.00 | 0.00 | 0.00 | 69 | 1010.0 |
| 20260507183705 | 11 | 252 | 16.1 | 29.0 | 0.00 | 0.00 | 0.00 | 68 | 1009.9 |
| 20260507183206 | 12 | 190 | 14.5 | 29.0 | 0.00 | 0.00 | 0.00 | 69 | 1010.0 |
| 20260507182705 | 12 | 181 | 14.5 | 25.7 | 0.00 | 0.00 | 0.00 | 68 | 1010.0 |
| 20260507182206 | 12 | 209 | 14.5 | 27.4 | 0.00 | 0.00 | 0.00 | 68 | 1009.9 |
| 20260507181704 | 12 | 223 | 12.9 | 29.0 | 0.00 | 0.00 | 0.00 | 69 | 1009.9 |
| 20260507181206 | 12 | 168 | 14.5 | 32.2 | 0.00 | 0.00 | 0.00 | 69 | 1009.9 |
| 20260507180705 | 12 | 194 | 14.5 | 32.2 | 0.00 | 0.00 | 0.00 | 69 | 1009.9 |
| 20260507180205 | 12 | 213 | 16.1 | 32.2 | 0.00 | 0.00 | 0.00 | 69 | 1009.8 |
| 20260507175706 | 12 | 196 | 14.5 | 29.0 | 0.00 | 0.00 | 0.00 | 69 | 1009.8 |
| 20260507175205 | 11 | 208 | 9.7 | 20.9 | 0.00 | 0.00 | 0.00 | 70 | 1009.8 |
| 20260507173707 | 11 | 194 | 6.4 | 14.5 | 0.00 | 0.00 | 0.00 | 73 | 1009.9 |
| 20260507172705 | 11 | 195 | 4.8 | 16.1 | 0.00 | 0.00 | 0.00 | 73 | 1009.9 |
| 20260507171707 | 11 | 198 | 8.0 | 16.1 | 0.00 | 0.00 | 0.00 | 73 | 1009.9 |
| 20260507171205 | 11 | 199 | 6.4 | 14.5 | 0.00 | 0.00 | 0.00 | 73 | 1009.9 |
| 20260507170206 | 11 | 211 | 4.8 | 11.3 | 0.00 | 0.00 | 0.00 | 74 | 1009.9 |
| 20260507165206 | 11 | 199 | 4.8 | 9.7 | 0.00 | 0.00 | 0.00 | 75 | 1010.0 |
| 20260507164705 | 11 | 213 | 3.2 | 9.7 | 0.00 | 0.00 | 0.00 | 74 | 1010.1 |
| 20260507164205 | 11 | 190 | 1.6 | 4.8 | 0.00 | 0.00 | 0.00 | 75 | 1010.1 |
| 20260507163705 | 11 | 227 | 1.6 | 8.0 | 0.00 | 0.00 | 0.00 | 75 | 1010.2 |
| 20260507163205 | 11 | 222 | 1.6 | 8.0 | 0.00 | 0.00 | 0.00 | 75 | 1010.2 |
| 20260507162705 | 11 | 232 | 3.2 | 9.7 | 0.00 | 0.00 | 0.00 | 75 | 1010.2 |
| 20260507162206 | 11 | 207 | 4.8 | 9.7 | 0.00 | 0.00 | 0.00 | 74 | 1010.2 |
| 20260507161708 | 11 | 200 | 4.8 | 12.9 | 0.00 | 0.00 | 0.00 | 75 | 1010.2 |
| 20260507161205 | 11 | 227 | 6.4 | 14.5 | 0.00 | 0.00 | 0.00 | 75 | 1010.3 |
| 20260507160705 | 11 | 264 | 6.4 | 14.5 | 0.00 | 0.00 | 0.00 | 76 | 1010.2 |
| 20260507160206 | 11 | 288 | 6.4 | 14.5 | 0.00 | 0.00 | 0.00 | 76 | 1010.3 |
| 20260507155706 | 11 | 226 | 4.8 | 12.9 | 0.00 | 0.00 | 0.00 | 76 | 1010.4 |
| 20260507155206 | 11 | 257 | 6.4 | 12.9 | 0.00 | 0.00 | 0.00 | 75 | 1010.4 |
| 20260507154705 | 11 | 261 | 6.4 | 16.1 | 0.00 | 0.00 | 0.00 | 75 | 1010.4 |
| 20260507153206 | 11 | 258 | 9.7 | 20.9 | 0.00 | 0.00 | 0.00 | 74 | 1010.4 |
| 20260507152706 | 11 | 231 | 11.3 | 20.9 | 0.00 | 0.00 | 0.00 | 72 | 1010.5 |
| 20260507151205 | 12 | 225 | 14.5 | 30.6 | 0.00 | 0.00 | 0.00 | 67 | 1010.5 |
| 20260507150205 | 12 | 202 | 14.5 | 29.0 | 0.00 | 0.00 | 0.00 | 67 | 1010.3 |
| 20260507145704 | 12 | 180 | 14.5 | 29.0 | 0.00 | 0.00 | 0.00 | 67 | 1010.3 |
| 20260507145207 | 12 | 205 | 14.5 | 32.2 | 0.00 | 0.00 | 0.00 | 67 | 1010.4 |
| 20260507144705 | 12 | 167 | 12.9 | 32.2 | 0.00 | 0.00 | 0.00 | 67 | 1010.6 |
| 20260507144205 | 12 | 207 | 11.3 | 32.2 | 0.00 | 0.00 | 0.00 | 67 | 1010.5 |
| 20260507143705 | 12 | 213 | 11.3 | 33.8 | 0.00 | 0.00 | 0.00 | 68 | 1010.5 |
| 20260507143205 | 12 | 181 | 12.9 | 33.8 | 0.00 | 0.00 | 0.00 | 67 | 1010.6 |
| 20260507142205 | 12 | 210 | 12.9 | 30.6 | 0.00 | 0.00 | 0.00 | 67 | 1010.6 |
| 20260507141705 | 12 | 113 | 9.7 | 22.5 | 0.00 | 0.00 | 0.00 | 68 | 1010.6 |
| 20260507140705 | 12 | 173 | 12.9 | 27.4 | 0.00 | 0.00 | 0.00 | 67 | 1010.7 |
| 20260507140205 | 13 | 217 | 12.9 | 27.4 | 0.00 | 0.00 | 0.00 | 67 | 1010.7 |
| 20260507135705 | 13 | 205 | 12.9 | 24.1 | 0.00 | 0.00 | 0.00 | 69 | 1010.7 |
| 20260507135206 | 13 | 191 | 12.9 | 27.4 | 0.00 | 0.00 | 0.00 | 68 | 1010.7 |
| 20260507134705 | 13 | 178 | 12.9 | 27.4 | 0.00 | 0.00 | 0.00 | 69 | 1010.8 |
| 20260507134205 | 13 | 237 | 11.3 | 24.1 | 0.00 | 0.00 | 0.00 | 68 | 1010.9 |
| 20260507133734 | 13 | 235 | 9.7 | 29.0 | 0.00 | 0.00 | 0.00 | 70 | 1010.8 |
| 20260507133205 | 13 | 233 | 11.3 | 30.6 | 0.00 | 0.00 | 0.00 | 69 | 1010.8 |
| 20260507132706 | 12 | 217 | 14.5 | 30.6 | 0.00 | 0.00 | 0.00 | 69 | 1010.8 |
| 20260507132206 | 12 | 171 | 16.1 | 30.6 | 0.00 | 0.00 | 0.00 | 69 | 1010.9 |
| 20260507131705 | 12 | 204 | 16.1 | 30.6 | 0.00 | 0.00 | 0.00 | 68 | 1010.8 |
| 20260507131206 | 12 | 167 | 14.5 | 30.6 | 0.00 | 0.00 | 0.00 | 69 | 1010.8 |
| 20260507130705 | 12 | 167 | 12.9 | 30.6 | 0.00 | 0.00 | 0.00 | 70 | 1011.0 |
| 20260507130205 | 12 | 211 | 12.9 | 27.4 | 0.00 | 0.00 | 0.00 | 71 | 1010.9 |
| 20260507125206 | 12 | 194 | 11.3 | 24.1 | 0.00 | 0.00 | 0.00 | 72 | 1011.0 |
| 20260507124707 | 12 | 161 | 9.7 | 19.3 | 0.00 | 0.00 | 0.00 | 71 | 1011.1 |
| 20260507124208 | 12 | 207 | 8.0 | 17.7 | 0.00 | 0.00 | 0.00 | 72 | 1011.1 |
| 20260507123205 | 11 | 202 | 8.0 | 20.9 | 0.00 | 0.00 | 0.00 | 72 | 1011.2 |
| 20260507122205 | 11 | 186 | 9.7 | 19.3 | 0.00 | 0.00 | 0.00 | 73 | 1011.2 |
| 20260507121205 | 11 | 171 | 6.4 | 19.3 | 0.00 | 0.00 | 0.00 | 72 | 1011.4 |
| 20260507120705 | 11 | 185 | 8.0 | 19.3 | 0.00 | 0.00 | 0.00 | 74 | 1011.4 |
| 20260507115705 | 10 | 192 | 9.7 | 19.3 | 0.00 | 0.00 | 0.00 | 76 | 1011.4 |
| 20260507115206 | 10 | 227 | 11.3 | 19.3 | 0.00 | 0.00 | 0.00 | 75 | 1011.4 |
| 20260507114705 | 10 | 200 | 9.7 | 17.7 | 0.00 | 0.00 | 0.00 | 76 | 1011.4 |
| 20260507114205 | 10 | 239 | 8.0 | 17.7 | 0.00 | 0.00 | 0.00 | 76 | 1011.5 |
| 20260507113205 | 9 | 209 | 8.0 | 19.3 | 0.00 | 0.00 | 0.00 | 76 | 1011.5 |
| 20260507112706 | 9 | 182 | 8.0 | 19.3 | 0.00 | 0.00 | 0.00 | 76 | 1011.5 |
| 20260507112206 | 9 | 201 | 8.0 | 29.0 | 0.00 | 0.00 | 0.00 | 76 | 1011.5 |
| 20260507111705 | 9 | 224 | 11.3 | 29.0 | 0.00 | 0.00 | 0.00 | 76 | 1011.5 |
| 20260507111221 | 9 | 198 | 11.3 | 25.7 | 0.00 | 0.00 | 0.00 | 75 | 1011.5 |
| 20260507110705 | 10 | 201 | 9.7 | 22.5 | 0.00 | 0.00 | 0.00 | 74 | 1011.5 |
| 20260507110257 | 10 | 217 | 9.7 | 20.9 | 0.00 | 0.00 | 0.00 | 74 | 1011.6 |
| 20260507105705 | 10 | 196 | 9.7 | 20.9 | 0.00 | 0.00 | 0.00 | 74 | 1011.5 |
| 20260507105205 | 10 | 216 | 9.7 | 22.5 | 0.00 | 0.00 | 0.00 | 73 | 1011.5 |
| 20260507104705 | 10 | 197 | 9.7 | 22.5 | 0.00 | 0.00 | 0.00 | 72 | 1011.5 |
| 20260507104205 | 10 | 184 | 11.3 | 22.5 | 0.00 | 0.00 | 0.00 | 72 | 1011.6 |
| 20260507103707 | 10 | 205 | 11.3 | 22.5 | 0.00 | 0.00 | 0.00 | 72 | 1011.7 |
| 20260507103205 | 10 | 197 | 8.0 | 19.3 | 0.00 | 0.00 | 0.00 | 73 | 1011.6 |
| 20260507102705 | 10 | 213 | 8.0 | 19.3 | 0.00 | 0.00 | 0.00 | 74 | 1011.6 |
| 20260507102206 | 10 | 196 | 9.7 | 22.5 | 0.00 | 0.00 | 0.00 | 73 | 1011.5 |
| 20260507101705 | 10 | 214 | 11.3 | 22.5 | 0.00 | 0.00 | 0.00 | 73 | 1011.5 |
| 20260507101205 | 10 | 194 | 11.3 | 24.1 | 0.00 | 0.00 | 0.00 | 72 | 1011.5 |
| 20260507100705 | 11 | 184 | 11.3 | 24.1 | 0.00 | 0.00 | 0.00 | 72 | 1011.4 |
| 20260507100205 | 11 | 211 | 11.3 | 24.1 | 0.00 | 0.00 | 0.00 | 72 | 1011.3 |
| 20260507095705 | 11 | 223 | 11.3 | 29.0 | 0.00 | 0.00 | 0.00 | 73 | 1011.4 |
| 20260507095205 | 11 | 214 | 12.9 | 29.0 | 0.00 | 0.00 | 0.00 | 71 | 1011.4 |
| 20260507094706 | 11 | 159 | 12.9 | 29.0 | 0.00 | 0.00 | 0.00 | 71 | 1011.3 |
| 20260507094205 | 11 | 176 | 9.7 | 24.1 | 0.00 | 0.00 | 0.00 | 71 | 1011.4 |
| 20260507093705 | 11 | 216 | 8.0 | 14.5 | 0.00 | 0.00 | 0.00 | 72 | 1011.3 |
| 20260507093205 | 11 | 225 | 6.4 | 14.5 | 0.00 | 0.00 | 0.00 | 70 | 1011.3 |
| 20260507092705 | 11 | 184 | 6.4 | 14.5 | 0.00 | 0.00 | 0.00 | 73 | 1011.2 |
| 20260507092206 | 11 | 156 | 6.4 | 12.9 | 0.00 | 0.00 | 0.00 | 70 | 1011.2 |
| 20260507091705 | 11 | 211 | 4.8 | 14.5 | 0.00 | 0.00 | 0.00 | 72 | 1011.2 |
| 20260507091205 | 11 | 126 | 6.4 | 14.5 | 0.00 | 0.00 | 0.00 | 72 | 1011.2 |
| 20260507090731 | 10 | 234 | 4.8 | 12.9 | 0.00 | 0.00 | 0.00 | 71 | 1011.3 |
| 20260507090205 | 10 | 167 | 4.8 | 12.9 | 0.00 | 0.00 | 0.00 | 70 | 1011.3 |
| 20260507085205 | 11 | 127 | 4.8 | 16.1 | 0.00 | 0.00 | 0.00 | 70 | 1011.4 |
| 20260507084706 | 11 | 185 | 6.4 | 16.1 | 0.00 | 0.00 | 0.00 | 70 | 1011.4 |
| 20260507084206 | 11 | 188 | 8.0 | 16.1 | 0.00 | 0.00 | 0.00 | 70 | 1011.4 |
| 20260507083205 | 11 | 113 | 4.8 | 14.5 | 0.00 | 0.00 | 0.00 | 70 | 1011.4 |
| 20260507082705 | 11 | 219 | 4.8 | 16.1 | 0.00 | 0.00 | 0.00 | 71 | 1011.4 |
| 20260507081706 | 10 | 209 | 9.7 | 16.1 | 0.00 | 0.00 | 0.00 | 70 | 1011.5 |
| 20260507081205 | 11 | 215 | 8.0 | 16.1 | 0.00 | 0.00 | 0.00 | 69 | 1011.5 |
| 20260507080704 | 11 | 161 | 6.4 | 14.5 | 0.00 | 0.00 | 0.00 | 68 | 1011.4 |
| 20260507080205 | 11 | 168 | 4.8 | 14.5 | 0.00 | 0.00 | 0.00 | 68 | 1011.4 |
| 20260507075705 | 11 | 119 | 4.8 | 17.7 | 0.00 | 0.00 | 0.00 | 68 | 1011.5 |
| 20260507075206 | 11 | 108 | 6.4 | 17.7 | 0.00 | 0.00 | 0.00 | 72 | 1011.5 |
| 20260507074706 | 10 | 172 | 6.4 | 17.7 | 0.00 | 0.00 | 0.00 | 69 | 1011.4 |
| 20260507074205 | 11 | 159 | 4.8 | 12.9 | 0.00 | 0.00 | 0.00 | 70 | 1011.4 |
| 20260507072705 | 10 | 207 | 4.8 | 14.5 | 0.00 | 0.00 | 0.00 | 72 | 1011.5 |
| 20260507072206 | 10 | 169 | 4.8 | 12.9 | 0.00 | 0.00 | 0.00 | 73 | 1011.5 |
| 20260507071705 | 9 | 230 | 4.8 | 12.9 | 0.00 | 0.00 | 0.00 | 72 | 1011.5 |
| 20260507070705 | 10 | 241 | 4.8 | 14.5 | 0.00 | 0.00 | 0.00 | 72 | 1011.5 |
| 20260507070205 | 10 | 229 | 6.4 | 14.5 | 0.00 | 0.00 | 0.00 | 73 | 1011.5 |
| 20260507065705 | 10 | 147 | 8.0 | 14.5 | 0.00 | 0.00 | 0.00 | 72 | 1011.5 |
| 20260507065205 | 9 | 181 | 3.2 | 11.3 | 0.00 | 0.00 | 0.00 | 74 | 1011.5 |
| 20260507064706 | 9 | 210 | 1.6 | 4.8 | 0.00 | 0.00 | 0.00 | 78 | 1011.6 |
| 20260507064205 | 8 | 205 | 1.6 | 4.8 | 0.00 | 0.00 | 0.00 | 79 | 1011.6 |
| 20260507063707 | 7 | 225 | 1.6 | 6.4 | 0.00 | 0.00 | 0.00 | 81 | 1011.6 |
| 20260507062706 | 6 | 202 | 3.2 | 6.4 | 0.00 | 0.00 | 0.00 | 83 | 1011.6 |
| 20260507061706 | 6 | 180 | 3.2 | 6.4 | 0.00 | 0.00 | 0.00 | 85 | 1011.6 |
| 20260507061205 | 6 | 201 | 1.6 | 3.2 | 0.00 | 0.00 | 0.00 | 85 | 1011.6 |
| 20260507060722 | 6 | 285 | 0.0 | 1.6 | 0.00 | 0.00 | 0.00 | 85 | 1011.7 |
| 20260507060205 | 5 | 285 | 0.0 | 1.6 | 0.00 | 0.00 | 0.00 | 85 | 1011.7 |
| 20260507055705 | 5 | 285 | 0.0 | 1.6 | 0.00 | 0.00 | 0.00 | 85 | 1011.7 |
| 20260507054705 | 5 | 285 | 0.0 | 0.0 | 0.00 | 0.00 | 0.00 | 84 | 1011.8 |
| 20260507054227 | 5 | 285 | 0.0 | 0.0 | 0.00 | 0.00 | 0.00 | 84 | 1011.7 |
| 20260507053727 | 5 | 285 | 0.0 | 0.0 | 0.00 | 0.00 | 0.00 | 84 | 1011.7 |
| 20260507052206 | 5 | 285 | 0.0 | 1.6 | 0.00 | 0.00 | 0.00 | 83 | 1011.8 |
| 20260507051721 | 5 | 285 | 0.0 | 1.6 | 0.00 | 0.00 | 0.00 | 83 | 1011.8 |
| 20260507051204 | 5 | 285 | 0.0 | 1.6 | 0.00 | 0.00 | 0.00 | 83 | 1011.8 |
| 20260507050705 | 5 | 285 | 0.0 | 1.6 | 0.00 | 0.00 | 0.00 | 83 | 1011.8 |
| 20260507050205 | 5 | 285 | 0.0 | 3.2 | 0.00 | 0.00 | 0.00 | 83 | 1011.8 |
| 20260507045705 | 5 | 285 | 0.0 | 4.8 | 0.00 | 0.00 | 0.00 | 83 | 1011.8 |
| 20260507044705 | 5 | 285 | 1.6 | 3.2 | 0.00 | 0.00 | 0.00 | 83 | 1011.8 |
| 20260507044205 | 5 | 146 | 1.6 | 4.8 | 0.00 | 0.00 | 0.00 | 83 | 1011.8 |
| 20260507043705 | 5 | 144 | 1.6 | 6.4 | 0.00 | 0.00 | 0.00 | 83 | 1011.8 |
| 20260507043206 | 5 | 134 | 3.2 | 6.4 | 0.00 | 0.00 | 0.00 | 83 | 1011.8 |
| 20260507042207 | 5 | 115 | 3.2 | 4.8 | 0.00 | 0.00 | 0.00 | 82 | 1011.7 |
| 20260507041707 | 5 | 93 | 1.6 | 4.8 | 0.00 | 0.00 | 0.00 | 82 | 1011.8 |
| 20260507040705 | 5 | 93 | 0.0 | 0.0 | 0.00 | 0.00 | 0.00 | 81 | 1011.7 |
| 20260507040205 | 5 | 93 | 0.0 | 0.0 | 0.00 | 0.00 | 0.00 | 81 | 1011.7 |
| 20260507035704 | 5 | 93 | 0.0 | 0.0 | 0.00 | 0.00 | 0.00 | 81 | 1011.7 |
| 20260507035205 | 5 | 93 | 0.0 | 3.2 | 0.00 | 0.00 | 0.00 | 81 | 1011.8 |
| 20260507034705 | 5 | 93 | 0.0 | 3.2 | 0.00 | 0.00 | 0.00 | 81 | 1011.8 |
| 20260507034205 | 5 | 93 | 1.6 | 3.2 | 0.00 | 0.00 | 0.00 | 81 | 1011.8 |
| 20260507033705 | 5 | 93 | 1.6 | 4.8 | 0.00 | 0.00 | 0.00 | 81 | 1011.8 |
| 20260507033207 | 5 | 93 | 1.6 | 4.8 | 0.00 | 0.00 | 0.00 | 81 | 1011.8 |
| 20260507032705 | 5 | 93 | 1.6 | 4.8 | 0.00 | 0.00 | 0.00 | 81 | 1011.9 |
| 20260507032205 | 5 | 93 | 3.2 | 4.8 | 0.00 | 0.00 | 0.00 | 81 | 1011.9 |
| 20260507031705 | 5 | 93 | 1.6 | 3.2 | 0.00 | 0.00 | 0.00 | 81 | 1012.0 |
| 20260507031205 | 5 | 93 | 0.0 | 1.6 | 0.00 | 0.00 | 0.00 | 80 | 1012.0 |
| 20260507030704 | 5 | 93 | 0.0 | 1.6 | 0.00 | 0.00 | 0.00 | 80 | 1012.1 |
| 20260507030205 | 5 | 93 | 0.0 | 1.6 | 0.00 | 0.00 | 0.00 | 80 | 1012.1 |
| 20260507025705 | 5 | 93 | 0.0 | 1.6 | 0.00 | 0.00 | 0.00 | 80 | 1012.1 |
| 20260507025206 | 5 | 93 | 0.0 | 1.6 | 0.00 | 0.00 | 0.00 | 79 | 1012.1 |
| 20260507024205 | 5 | 93 | 0.0 | 3.2 | 0.00 | 0.00 | 0.00 | 78 | 1012.1 |
| 20260507023705 | 5 | 93 | 0.0 | 3.2 | 0.00 | 0.00 | 0.00 | 78 | 1012.0 |
| 20260507023205 | 5 | 93 | 0.0 | 3.2 | 0.00 | 0.00 | 0.00 | 78 | 1012.1 |
| 20260507022706 | 5 | 93 | 0.0 | 3.2 | 0.00 | 0.00 | 0.00 | 78 | 1012.0 |
| 20260507022206 | 5 | 93 | 1.6 | 3.2 | 0.00 | 0.00 | 0.00 | 77 | 1012.1 |
| 20260507021705 | 5 | 93 | 1.6 | 3.2 | 0.00 | 0.00 | 0.00 | 77 | 1012.0 |
| 20260507021206 | 6 | 93 | 1.6 | 3.2 | 0.00 | 0.00 | 0.00 | 77 | 1012.0 |
| 20260507020206 | 6 | 93 | 1.6 | 3.2 | 0.00 | 0.00 | 0.00 | 77 | 1012.1 |
| 20260507015704 | 6 | 93 | 1.6 | 3.2 | 0.00 | 0.00 | 0.00 | 76 | 1012.2 |
| 20260507015205 | 6 | 93 | 0.0 | 3.2 | 0.00 | 0.00 | 0.00 | 76 | 1012.2 |
| 20260507014206 | 6 | 93 | 0.0 | 6.4 | 0.00 | 0.00 | 0.00 | 76 | 1012.2 |
| 20260507013705 | 6 | 93 | 3.2 | 6.4 | 0.00 | 0.00 | 0.00 | 76 | 1012.3 |
| 20260507013205 | 6 | 91 | 3.2 | 6.4 | 0.00 | 0.00 | 0.00 | 76 | 1012.3 |
| 20260507012232 | 6 | 90 | 1.6 | 6.4 | 0.00 | 0.00 | 0.00 | 76 | 1012.2 |
| 20260507011705 | 6 | 93 | 1.6 | 6.4 | 0.00 | 0.00 | 0.00 | 76 | 1012.3 |
| 20260507011205 | 6 | 81 | 1.6 | 6.4 | 0.00 | 0.00 | 0.00 | 76 | 1012.2 |
| 20260507010705 | 6 | 128 | 3.2 | 6.4 | 0.00 | 0.00 | 0.00 | 76 | 1012.3 |
| 20260507010206 | 6 | 107 | 3.2 | 6.4 | 0.00 | 0.00 | 0.00 | 76 | 1012.3 |
| 20260507005206 | 6 | 123 | 4.8 | 9.7 | 0.00 | 0.00 | 0.00 | 75 | 1012.4 |
| 20260507004704 | 6 | 109 | 4.8 | 11.3 | 0.00 | 0.00 | 0.00 | 75 | 1012.3 |
| 20260507004205 | 6 | 119 | 4.8 | 11.3 | 0.00 | 0.00 | 0.00 | 75 | 1012.4 |
| 20260507003705 | 6 | 118 | 4.8 | 11.3 | 0.00 | 0.00 | 0.00 | 75 | 1012.4 |
| 20260507003205 | 6 | 123 | 4.8 | 11.3 | 0.00 | 0.00 | 0.00 | 74 | 1012.5 |
| 20260507001705 | 6 | 103 | 3.2 | 9.7 | 0.00 | 0.00 | 0.00 | 74 | 1012.6 |
| 20260507000706 | 6 | 102 | 3.2 | 6.4 | 0.00 | 0.00 | 0.00 | 74 | 1012.6 |
| 20260507000205 | 6 | 96 | 3.2 | 11.3 | 0.00 | 0.00 | 0.00 | 74 | 1012.6 |
| 20260506235705 | 7 | 110 | 4.8 | 11.3 | 0.00 | 0.00 | 0.00 | 74 | 1012.7 |
| 20260506235206 | 7 | 114 | 4.8 | 8.0 | 0.00 | 0.00 | 0.00 | 73 | 1012.7 |
| 20260506234226 | 7 | 116 | 4.8 | 9.7 | 0.00 | 0.00 | 0.00 | 73 | 1012.7 |
| 20260506233704 | 7 | 113 | 4.8 | 9.7 | 0.00 | 0.00 | 0.00 | 73 | 1012.8 |
| 20260506233205 | 7 | 110 | 4.8 | 9.7 | 0.00 | 0.00 | 0.00 | 73 | 1012.8 |